Location: *
(37.5724°S, 58.0067°E)
Time: 03:53:34
(UTC+00:00)

CZ-3A R/B - Pass Details

Date: 18 January 2021
Orbit: 1323 x 30224 km, 55.5° (Epoch: 06 March)

Event Time Altitude Azimuth Distance (km) Brightness Sun altitude
Rises 19:13:23 0° 341° (NNW) 33,684 10.4 -30.1°
Reaches altitude 10° 20:32:16 10° 332° (NNW) 25,270 9.7 -32.0°
Enters shadow 21:10:45 19° 326° (NW) 18,477 8.9 -30.8°
Exits shadow 21:28:00 26° 322° (NW) 14,581 8.4 -29.8°
Maximum altitude 22:06:47 86° 228° (SW) 3,744 5.8 -26.7°
Drops below altitude 10° 22:17:39 10° 136° (SE) 4,292 7.3 -25.7°
Sets 22:19:39 0° 135° (SE) 4,934 7.9 -25.5°
